Pinedale, WY

10:14 PM MDT on July 23, 2017 (GMT -0600)
Wenz

Weather History for KPNA - October, 2013

Change the Weather History Date:

Saturday, October 19, 2013

  Actual Average (KBPI) Record (KBPI)
Temperature  
Mean Temperature 38 °F -  
Max Temperature 51 °F 51 °F 71 °F (2003)
Min Temperature 24 °F 20 °F 1 °F (1976)
Degree Days  
Heating Degree Days 28    
Moisture  
Dew Point 22 °F    
Average Humidity 59    
Maximum Humidity 80    
Minimum Humidity 30    
Precipitation  
Precipitation 0.00 in - - ()
Sea Level Pressure  
Sea Level Pressure 30.14 in    
Wind  
Wind Speed 11 mph (WNW)    
Max Wind Speed 26 mph    
Max Gust Speed 33 mph    
Visibility 10 miles    
Events      
Averages and records for this station are not official NWS values.
T = Trace of Precipitation, MM = Missing Value Source: NWS Daily Summary

Daily Weather History Graph

Daily Weather History Graph

Search for Another Location

Airport or City:

Trip Planner

Search our weather history database for the weather conditions in past years. The results will help you decide how hot, cold, wet, or windy it might be!

Date:

Astronomy

Oct. 19, 2013 Rise Set
Actual Time 7:37 AM MDT 6:29 PM MDT
Civil Twilight 7:08 AM MDT 6:58 PM MDT
Nautical Twilight 6:36 AM MDT 7:31 PM MDT
Astronomical Twilight 6:03 AM MDT 8:04 PM MDT
Moon 6:58 PM MDT (10/19) 8:20 AM MDT (10/19)
Length of Visible Light 11h 49m
Length of Day
10h 52m
Full, 99% of the Moon is Illuminated
Oct 19
Full
Oct 26
Last Quarter
Nov 3
New
Nov 9
First Quarter
Nov 17
Full

Hourly Weather History & Observations

Time (MDT) Temp. Windchill Dew Point Humidity Pressure Visibility Wind Dir Wind Speed Gust Speed Precip Events Conditions
12:15 AM 28.4 °F 19.7 °F 19.4 °F 69% 30.21 in 10.0 mi NW 9.2 mph - N/A   Clear
12:35 AM 28.4 °F 19.1 °F 19.4 °F 69% 30.21 in 10.0 mi NW 10.4 mph - N/A   Clear
12:55 AM 28.4 °F 19.7 °F 19.4 °F 69% 30.21 in 10.0 mi NW 9.2 mph - N/A   Clear
1:15 AM 26.6 °F 16.8 °F 19.4 °F 74% 30.21 in 10.0 mi WNW 10.4 mph - N/A   Clear
1:35 AM 28.4 °F 17.5 °F 19.4 °F 69% 30.20 in 10.0 mi NW 13.8 mph - N/A   Clear
1:55 AM 26.6 °F 16.2 °F 19.4 °F 74% 30.19 in 10.0 mi NW 11.5 mph - N/A   Clear
2:15 AM 26.6 °F 18.2 °F 19.4 °F 74% 30.19 in 10.0 mi NNW 8.1 mph - N/A   Clear
2:35 AM 26.6 °F 19.1 °F 19.4 °F 74% 30.19 in 10.0 mi NNW 6.9 mph - N/A   Clear
2:55 AM 26.6 °F 17.5 °F 19.4 °F 74% 30.18 in 10.0 mi WNW 9.2 mph - N/A   Clear
3:15 AM 28.4 °F 17.5 °F 19.4 °F 69% 30.18 in 10.0 mi West 13.8 mph - N/A   Clear
3:35 AM 28.4 °F 17.5 °F 19.4 °F 69% 30.18 in 10.0 mi WNW 13.8 mph - N/A   Clear
3:55 AM 28.4 °F 18.0 °F 19.4 °F 69% 30.18 in 10.0 mi West 12.7 mph - N/A   Clear
4:15 AM 30.2 °F 19.3 °F 19.4 °F 64% 30.17 in 10.0 mi West 15.0 mph - N/A   Clear
4:35 AM 28.4 °F 17.5 °F 19.4 °F 69% 30.18 in 10.0 mi West 13.8 mph - N/A   Clear
4:55 AM 28.4 °F 19.1 °F 19.4 °F 69% 30.18 in 10.0 mi WNW 10.4 mph - N/A   Clear
5:15 AM 28.4 °F 18.5 °F 19.4 °F 69% 30.18 in 10.0 mi NW 11.5 mph - N/A   Clear
5:35 AM 28.4 °F 18.0 °F 19.4 °F 69% 30.18 in 10.0 mi NW 12.7 mph - N/A   Clear
5:55 AM 26.6 °F 16.8 °F 19.4 °F 74% 30.18 in 10.0 mi NW 10.4 mph - N/A   Clear
6:15 AM 26.6 °F 19.1 °F 19.4 °F 74% 30.18 in 10.0 mi NW 6.9 mph - N/A   Clear
6:35 AM 26.6 °F 15.7 °F 19.4 °F 74% 30.18 in 10.0 mi West 12.7 mph - N/A   Clear
6:55 AM 28.4 °F 20.4 °F 19.4 °F 69% 30.18 in 10.0 mi WNW 8.1 mph - N/A   Clear
7:15 AM 24.8 °F 16.9 °F 19.4 °F 80% 30.18 in 10.0 mi WNW 6.9 mph - N/A   Clear
7:35 AM 24.8 °F 16.1 °F 19.4 °F 80% 30.18 in 10.0 mi NW 8.1 mph - N/A   Clear
7:55 AM 26.6 °F 19.1 °F 19.4 °F 74% 30.17 in 10.0 mi NNW 6.9 mph - N/A   Clear
8:15 AM 28.4 °F 24.6 °F 21.2 °F 74% 30.18 in 10.0 mi NW 3.5 mph - N/A   Clear
8:35 AM 28.4 °F 24.6 °F 21.2 °F 74% 30.18 in 10.0 mi NNW 3.5 mph - N/A   Clear
8:55 AM 30.2 °F - 21.2 °F 69% 30.19 in 10.0 mi Calm Calm - N/A   Clear
9:15 AM 32.0 °F 28.7 °F 21.2 °F 64% 30.19 in 10.0 mi North 3.5 mph - N/A   Clear
9:35 AM 33.8 °F 30.8 °F 23.0 °F 65% 30.19 in 10.0 mi North 3.5 mph - N/A   Clear
9:55 AM 35.6 °F 29.9 °F 23.0 °F 60% 30.19 in 10.0 mi NW 6.9 mph - N/A   Clear
10:15 AM 37.4 °F 30.8 °F 24.8 °F 60% 30.19 in 10.0 mi NW 9.2 mph - N/A   Clear
10:35 AM 41.0 °F 33.9 °F 24.8 °F 53% 30.18 in 10.0 mi NW 12.7 mph - N/A   Clear
10:55 AM 42.8 °F 35.4 °F 23.0 °F 46% 30.17 in 10.0 mi WNW 15.0 mph 21.9 mph N/A   Clear
12:55 PM 48.2 °F - 23.0 °F 37% 30.14 in 10.0 mi WNW 19.6 mph 26.5 mph N/A   Clear
1:15 PM 50.0 °F - 23.0 °F 35% 30.14 in 10.0 mi WNW 21.9 mph 27.6 mph N/A   Clear
1:35 PM 50.0 °F - 23.0 °F 35% 30.13 in 10.0 mi WNW 23.0 mph 31.1 mph N/A   Clear
1:55 PM 50.0 °F - 23.0 °F 35% 30.12 in 10.0 mi WNW 25.3 mph 28.8 mph N/A   Clear
2:15 PM 50.0 °F - 21.2 °F 32% 30.11 in 10.0 mi WNW 25.3 mph 33.4 mph N/A   Clear
2:35 PM 50.0 °F - 21.2 °F 32% 30.11 in 10.0 mi NW 25.3 mph 29.9 mph N/A   Clear
2:55 PM 51.8 °F - 23.0 °F 33% 30.11 in 10.0 mi WNW 26.5 mph 29.9 mph N/A   Clear
3:15 PM 51.8 °F - 21.2 °F 30% 30.10 in 10.0 mi WNW 24.2 mph 33.4 mph N/A   Clear
3:35 PM 51.8 °F - 21.2 °F 30% 30.10 in 10.0 mi WNW 24.2 mph 33.4 mph N/A   Clear
3:55 PM 50.0 °F - 23.0 °F 35% 30.09 in 10.0 mi WNW 24.2 mph 31.1 mph N/A   Clear
4:15 PM 50.0 °F - 23.0 °F 35% 30.09 in 10.0 mi WNW 24.2 mph 29.9 mph N/A   Clear
4:35 PM 50.0 °F - 23.0 °F 35% 30.09 in 10.0 mi WNW 20.7 mph 31.1 mph N/A   Clear
4:55 PM 50.0 °F - 23.0 °F 35% 30.09 in 10.0 mi West 15.0 mph 25.3 mph N/A   Clear
5:15 PM 50.0 °F - 23.0 °F 35% 30.09 in 10.0 mi WNW 23.0 mph 29.9 mph N/A   Clear
5:35 PM 48.2 °F - 23.0 °F 37% 30.09 in 10.0 mi WNW 20.7 mph 28.8 mph N/A   Clear
5:55 PM 48.2 °F - 23.0 °F 37% 30.08 in 10.0 mi WNW 16.1 mph 24.2 mph N/A   Clear
6:15 PM 46.4 °F 38.7 °F 23.0 °F 40% 30.08 in 10.0 mi WNW 20.7 mph 27.6 mph N/A   Clear
6:35 PM 44.6 °F 38.8 °F 23.0 °F 43% 30.09 in 10.0 mi West 11.5 mph - N/A   Clear
6:55 PM 41.0 °F 34.7 °F 24.8 °F 53% 30.09 in 10.0 mi West 10.4 mph - N/A   Clear
7:15 PM 39.2 °F 32.5 °F 24.8 °F 56% 30.09 in 10.0 mi West 10.4 mph - N/A   Clear
7:35 PM 37.4 °F 30.8 °F 24.8 °F 60% 30.09 in 10.0 mi West 9.2 mph - N/A   Clear
7:55 PM 37.4 °F 30.3 °F 24.8 °F 60% 30.09 in 10.0 mi West 10.4 mph - N/A   Clear
8:15 PM 37.4 °F 31.4 °F 24.8 °F 60% 30.08 in 10.0 mi WNW 8.1 mph - N/A   Clear
8:35 PM 35.6 °F 30.7 °F 24.8 °F 65% 30.09 in 10.0 mi NW 5.8 mph - N/A   Clear
8:55 PM 33.8 °F 27.0 °F 24.8 °F 70% 30.08 in 10.0 mi WNW 8.1 mph - N/A   Clear
9:15 PM 37.4 °F 31.4 °F 24.8 °F 60% 30.08 in 10.0 mi West 8.1 mph - N/A   Clear
9:35 PM 35.6 °F 30.7 °F 23.0 °F 60% 30.08 in 10.0 mi NW 5.8 mph - N/A   Clear
9:55 PM 33.8 °F 27.0 °F 24.8 °F 70% 30.09 in 10.0 mi NW 8.1 mph - N/A   Clear
10:15 PM 33.8 °F 25.3 °F 23.0 °F 65% 30.09 in 10.0 mi West 11.5 mph - N/A   Clear
10:35 PM 32.0 °F - 23.0 °F 69% 30.09 in 10.0 mi Calm Calm - N/A   Clear
10:55 PM 30.2 °F - 23.0 °F 75% 30.09 in 10.0 mi Calm Calm - N/A   Clear
11:15 PM 30.2 °F 26.7 °F 23.0 °F 75% 30.09 in 10.0 mi WNW 3.5 mph - N/A   Scattered Clouds
11:35 PM 30.2 °F 26.7 °F 23.0 °F 75% 30.09 in 10.0 mi West 3.5 mph - N/A   Clear
11:55 PM 30.2 °F 23.4 °F 23.0 °F 75% 30.09 in 10.0 mi West 6.9 mph - N/A   Clear